Grand Junction, CO

2:43 PM MST on December 08, 2019 (GMT -0700)
Walker

Weather History for KGJT - November, 2019

Change the Weather History Date:

Thursday, November 21, 2019

  Actual Average Record
Temperature  
Mean Temperature 46 °F 36 °F  
Max Temperature 52 °F 47 °F 67 °F (1966)
Min Temperature 40 °F 25 °F 9 °F (1956)
Degree Days  
Heating Degree Days 19 29  
Month to date heating degree days 477 499  
Since 1 July heating degree days 1081 947  
Cooling Degree Days 0 0  
Month to date cooling degree days 0 0  
Year to date cooling degree days 1287 1125  
Moisture  
Dew Point 38 °F    
Average Humidity 74    
Maximum Humidity 89    
Minimum Humidity 59    
Precipitation  
Precipitation 0.17 in 0.02 in 0.35 in (2016)
Month to date precipitation 0.37 0.53  
Year to date precipitation 7.51 8.63  
Snow  
Snow 0.00 in 0.10 in 2.50 in (1931)
Month to date snowfall 0.0 1.2  
Since 1 July snowfall 0.2 1.6  
Since 1 September snowfall 0.2 1.6  
Snow Depth 0.00 in    
Sea Level Pressure  
Sea Level Pressure 29.83 in    
Wind  
Wind Speed 8 mph (NNE)    
Max Wind Speed 20 mph    
Max Gust Speed 23 mph    
Visibility 10 miles    
Events Rain    
T = Trace of Precipitation, MM = Missing Value Source: NWS Daily Summary

Daily Weather History Graph

Daily Weather History Graph

Search for Another Location

Airport or City:

Astronomy

Nov. 21, 2019 Rise Set
Actual Time 7:03 AM MST 4:55 PM MST
Civil Twilight 6:34 AM MST 5:24 PM MST
Nautical Twilight 6:02 AM MST 5:57 PM MST
Astronomical Twilight 5:30 AM MST 6:29 PM MST
Moon 1:06 AM MST (11/21) 2:23 PM MST (11/21)
Length of Visible Light 10h 50m
Length of Day
9h 52m
Waning Crescent, 29% of the Moon is Illuminated
Nov 21
Waning Crescent
Nov 26
New
Dec 3
First Quarter
Dec 11
Full
Dec 18
Last Quarter

Hourly Weather History & Observations

Time (MST) Temp. Windchill Dew Point Humidity Pressure Visibility Wind Dir Wind Speed Gust Speed Precip Events Conditions
12:53 AM 44.1 °F 39.0 °F 39.9 °F 85% 29.69 in 10.0 mi East 9.2 mph - 0.01 in   Mostly Cloudy
1:53 AM 45.0 °F 43.5 °F 39.9 °F 82% 29.68 in 10.0 mi SSW 3.5 mph - N/A   Overcast
2:53 AM 44.1 °F 37.7 °F 41.0 °F 89% 29.71 in 8.0 mi East 12.7 mph - 0.05 in Rain Light Rain
3:53 AM 44.1 °F 39.0 °F 41.0 °F 89% 29.75 in 9.0 mi ESE 9.2 mph - 0.12 in Rain Light Rain
4:53 AM 43.0 °F 38.8 °F 39.9 °F 89% 29.76 in 10.0 mi SSE 6.9 mph - 0.00 in Rain Light Rain
5:53 AM 44.1 °F 41.5 °F 37.9 °F 79% 29.77 in 10.0 mi South 4.6 mph - 0.00 in   Overcast
6:53 AM 43.0 °F 39.5 °F 37.9 °F 82% 29.80 in 10.0 mi ESE 5.8 mph - N/A   Overcast
7:53 AM 43.0 °F 36.8 °F 37.9 °F 82% 29.80 in 10.0 mi ESE 11.5 mph - N/A   Overcast
8:53 AM 43.0 °F 36.8 °F 37.0 °F 80% 29.84 in 10.0 mi East 11.5 mph - N/A   Overcast
9:53 AM 44.1 °F 37.7 °F 37.0 °F 76% 29.86 in 10.0 mi East 12.7 mph - N/A   Overcast
10:53 AM 46.0 °F - 37.0 °F 71% 29.84 in 10.0 mi Calm Calm - N/A   Mostly Cloudy
11:53 AM 48.0 °F - 37.9 °F 68% 29.80 in 10.0 mi Calm Calm - N/A   Mostly Cloudy
12:53 PM 51.1 °F - 37.9 °F 61% 29.78 in 10.0 mi WNW 5.8 mph - N/A   Scattered Clouds
1:53 PM 50.0 °F - 37.9 °F 63% 29.78 in 10.0 mi WNW 8.1 mph - N/A   Mostly Cloudy
2:53 PM 48.9 °F - 37.9 °F 66% 29.80 in 10.0 mi WNW 5.8 mph - N/A   Mostly Cloudy
3:53 PM 48.0 °F - 37.9 °F 68% 29.81 in 10.0 mi WNW 6.9 mph - N/A   Mostly Cloudy
4:53 PM 45.0 °F 41.8 °F 37.9 °F 76% 29.85 in 10.0 mi NW 5.8 mph - N/A   Clear
5:53 PM 45.0 °F 40.1 °F 37.0 °F 74% 29.86 in 10.0 mi North 9.2 mph - N/A   Overcast
6:53 PM 43.0 °F 36.8 °F 37.0 °F 80% 29.89 in 10.0 mi NNW 11.5 mph - N/A   Mostly Cloudy
7:53 PM 41.0 °F 36.4 °F 36.0 °F 82% 29.92 in 10.0 mi NNW 6.9 mph - N/A   Scattered Clouds
8:53 PM 42.1 °F 36.6 °F 36.0 °F 79% 29.93 in 10.0 mi NW 9.2 mph - N/A   Overcast
11:50 PM 41.0 °F 37.1 °F 35.6 °F 81% 30.01 in 10.0 mi NNE 5.8 mph - N/A   Overcast
11:53 PM 41.0 °F 37.1 °F 36.0 °F 82% 29.96 in 10.0 mi NNE 5.8 mph - N/A   Overcast